Regional Weather Roundup
Issued by NWS Kansas City/Pleasant Hill, MO

Home | Current Version | Previous Version | Graphics & Text | Print | Product List | Glossary Off
Versions: 1 2 3 4 5 6 7 8 9 10 11 12 13 14 15 16 17 18 19 20 21 22 23 24 25 26 27 28 29 30 31 32 33 34 35 36 37 38 39 40 41 42 43 44 45 46 47 48 49 50

000
ASUS43 KEAX 031511
RWREAX

WEATHER ROUNDUP FOR EASTERN KANSAS AND NORTHWEST MISSOURI
NATIONAL WEATHER SERVICE KANSAS CITY/PLEASANT HILL MO
900 AM CST TUE MAR 03 2015

KSZ040-057-103>105-MOZ028-029-037-043-031600-
...KANSAS CITY METROPOLITAN AREA...

CITY           SKY/WX    TMP DP  RH WIND       PRES   REMARKS
K.C. INTL      DRIZZLE   39  38  96 SW15G25   29.71R WCI  31
K.C. DOWNTOWN  CLOUDY    41  38  89 SW8G20    29.73R
LEES SUMMIT    CLOUDY    40  38  93 SW21G30   29.73R WCI  30
OLATHE - IXD   CLOUDY    38  38 100 SW17      29.74R FOG     WCI  28
OLATHE - OJC   CLOUDY    39  39 100 SW15G22   29.72R FOG     WCI  31
LAWRENCE       CLOUDY    42  37  82 SW16G25   29.73R WCI  34

$$

MOZ001>008-011>017-020>025-030>033-038>040-044>046-053-054-031600-
...NORTHERN AND CENTRAL MISSOURI...

CITY           SKY/WX    TMP DP  RH WIND       PRES   REMARKS
ST. JOSEPH     CLOUDY    38  37  97 SW8       29.73R FOG     WCI  32
MOSBY          CLOUDY    41  37  87 SW14G22   29.74R WCI  33
WARRENSBURG    CLOUDY    37  36  93 SW15G24   29.75R FOG     WCI  28
WHITEMAN AFB   DRIZZLE   38  37  97 SW18G30   29.72F FOG     WCI  28
CLINTON        CLOUDY    41  39  93 SW18G24   29.79S FOG     WCI  32
SEDALIA        CLOUDY    39  37  92 SW15      29.76F FOG     WCI  31
WARSAW         NOT AVBL
MARSHALL       CLOUDY    39  37  93 SW10      29.77  FOG     WCI  32
CHILLICOTHE      N/A     36  34  92 S8        29.73S WCI  30
MOBERLY        LGT RAIN  37  32  81 S9        29.74  VSB 1   WCI  31
KIRKSVILLE     FOG       33  33 100 SW12      29.72S VSB 1   WCI  24

$$

MOZ041-047>049-056>058-063>065-088>090-097-031600-
...EASTERN AND SOUTHERN MISSOURI...

CITY           SKY/WX    TMP DP  RH WIND       PRES   REMARKS
ST. LOUIS INTL CLOUDY    39  34  82 S9        29.81F HAZE    WCI  33
SPIRIT OF STL  CLOUDY    39  36  89 S8        29.80F WCI  33
COLUMBIA       CLOUDY    37  35  92 S15       29.76R FOG     WCI  28
JEFFERSON CITY CLOUDY    39  37  92 VRB3      29.80F
MEXICO         CLOUDY   N/A N/A N/A SW14G22   29.75F HAZE
ROLLA          CLOUDY    39  37  92 S21       29.78F FOG     WCI  29
OSAGE BEACH    CLOUDY    39  37  93 S8        29.79F WCI  34
SPRINGFIELD    FOG       39  38  96 S14       29.84S VSB 1/2 WCI  31
BRANSON        FOG       37  37 100 CALM      29.91F VSB 1/8
NEVADA         CLOUDY    41  39  93 SW20G25   29.81R FOG     WCI  32
JOPLIN         CLOUDY    43  41  93 S17       29.85F
WEST PLAINS    FOG       36  35  96 S6        29.94S VSB 1/4 WCI  31

$$

IAZ060-094-KSZ022-034>040-054-083-096-NEZ052-066-093-031600-
...KANSAS...SOUTHEAST NEBRASKA AND IOWA...

CITY           SKY/WX    TMP DP  RH WIND       PRES   REMARKS
TOPEKA         CLOUDY    44  37  76 SW17G24   29.73R
MANHATTAN      PTSUNNY   42  35  76 SW15G22   29.71R WCI  34
EMPORIA        CLOUDY    41  38  89 SW22G33   29.73R WCI  31
CHANUTE        CLOUDY    40  40 100 SW20G30   29.81R FOG     WCI  30
WICHITA        CLOUDY    39  35  86 SW15      29.77S WCI  31
OMAHA          DRIZZLE   33  31  92 W14       29.74R FOG     WCI  23
LINCOLN        CLOUDY    34  30  85 NW16      29.75R FOG     WCI  24
FALLS CITY     CLOUDY    39  35  86 SW12      29.71R WCI  32
LAMONI         MIX PCPN  33  32  96 SW10      29.68R VSB 1   WCI  25
DES MOINES     FRZ DRZL  33  31  92 SW7       29.69R VSB 1   WCI  27

$$



USA.gov is the U.S. government's official web portal to all federal, state and local government web resources and services.